JES3163 SABE-SAZN

Flight info

Callsign JES3163
Flight time 1h 35m
Altitude 34000
Route PAL9 TORUL UT654 BIXIM UT669 TIMDO TIMD1U
Aircraft A320/M-SDE3FGHIRWY/LB1

Departure

Time 2026-05-05 23:43
Airport Aeroparque Jorge Newbery (SABE)

Arrival

Time 2026-05-06 01:19
Airport Presidente Perón International Airport (SAZN)
Time Latitude Longitude Altitude Speed Heading
2026-05-05 22:52 -34.55795 -58.41247 30 ft 0 kts 36°
2026-05-05 22:52 -34.55799 -58.41250 30 ft 0 kts 36°
2026-05-05 23:35 -34.55805 -58.41256 25 ft 4 kts 36°
2026-05-05 23:35 -34.55827 -58.41273 27 ft 4 kts 10°
2026-05-05 23:35 -34.55843 -58.41268 30 ft 3 kts 301°
2026-05-05 23:36 -34.55857 -58.41241 30 ft 4 kts 305°
2026-05-05 23:36 -34.55861 -58.41233 30 ft 0 kts 306°
2026-05-05 23:38 -34.55860 -58.41235 25 ft 2 kts 306°
2026-05-05 23:39 -34.55859 -58.41272 25 ft 7 kts 246°
2026-05-05 23:39 -34.55907 -58.41316 29 ft 9 kts 231°
2026-05-05 23:39 -34.55881 -58.41404 27 ft 15 kts 297°
2026-05-05 23:39 -34.55830 -58.41526 29 ft 17 kts 297°
2026-05-05 23:40 -34.55773 -58.41661 30 ft 19 kts 297°
2026-05-05 23:40 -34.55721 -58.41784 26 ft 16 kts 304°
2026-05-05 23:40 -34.55664 -58.41885 27 ft 15 kts 304°
2026-05-05 23:40 -34.55602 -58.41996 29 ft 17 kts 303°
2026-05-05 23:41 -34.55532 -58.42113 29 ft 18 kts 307°
2026-05-05 23:41 -34.55455 -58.42236 29 ft 19 kts 307°
2026-05-05 23:41 -34.55377 -58.42362 27 ft 15 kts 301°
2026-05-05 23:41 -34.55367 -58.42481 25 ft 14 kts 244°
2026-05-05 23:42 -34.55417 -58.42492 29 ft 7 kts 119°
2026-05-05 23:42 -34.55462 -58.42409 27 ft 28 kts 124°
2026-05-05 23:42 -34.55707 -58.41968 30 ft 94 kts 124°
2026-05-05 23:42 -34.56172 -58.41133 32 ft 142 kts 124°
2026-05-05 23:43 -34.56743 -58.40096 480 ft 150 kts 122°
2026-05-05 23:43 -34.57316 -58.39026 1101 ft 152 kts 117°
2026-05-05 23:43 -34.57615 -58.37766 1501 ft 165 kts 89°
2026-05-05 23:43 -34.57276 -58.36368 1796 ft 185 kts 57°
2026-05-05 23:44 -34.56421 -58.35087 2086 ft 206 kts 51°
2026-05-05 23:44 -34.55435 -58.33687 2374 ft 230 kts 50°
2026-05-05 23:44 -34.54324 -58.32155 2808 ft 251 kts 49°
2026-05-05 23:44 -34.53147 -58.30544 3581 ft 257 kts 42°
2026-05-05 23:45 -34.51639 -58.29360 4360 ft 263 kts 19°
2026-05-05 23:45 -34.49831 -58.28937 5101 ft 268 kts 358°
2026-05-05 23:45 -34.48004 -58.29349 5894 ft 269 kts 334°
2026-05-05 23:45 -34.46481 -58.30623 6702 ft 267 kts 310°
2026-05-05 23:46 -34.45540 -58.32546 7467 ft 268 kts 286°
2026-05-05 23:46 -34.45358 -58.34795 8196 ft 272 kts 262°
2026-05-05 23:46 -34.45999 -58.36962 8935 ft 278 kts 237°
2026-05-05 23:46 -34.47307 -58.38709 9672 ft 283 kts 225°
2026-05-05 23:47 -34.48737 -58.40364 10320 ft 290 kts 225°
2026-05-05 23:47 -34.50255 -58.42120 10508 ft 312 kts 225°
2026-05-05 23:47 -34.51858 -58.43978 10731 ft 331 kts 225°
2026-05-05 23:47 -34.53540 -58.45929 11261 ft 337 kts 225°
2026-05-05 23:48 -34.55244 -58.47911 11891 ft 341 kts 225°
2026-05-05 23:48 -34.56961 -58.49917 12474 ft 345 kts 225°
2026-05-05 23:48 -34.58696 -58.51949 13074 ft 348 kts 226°
2026-05-05 23:48 -34.60445 -58.54000 13710 ft 351 kts 226°
2026-05-05 23:49 -34.62212 -58.56074 14258 ft 354 kts 226°
2026-05-05 23:49 -34.63991 -58.58165 14840 ft 356 kts 226°
2026-05-05 23:49 -34.65769 -58.60257 15446 ft 357 kts 227°
2026-05-05 23:49 -34.67557 -58.62363 16028 ft 359 kts 227°
2026-05-05 23:50 -34.69356 -58.64481 16607 ft 361 kts 227°
2026-05-05 23:50 -34.71165 -58.66609 17190 ft 362 kts 227°
2026-05-05 23:50 -34.72981 -58.68745 17775 ft 364 kts 227°
2026-05-05 23:50 -34.74809 -58.70899 18351 ft 366 kts 227°
2026-05-05 23:51 -34.76623 -58.73041 18856 ft 368 kts 227°
2026-05-05 23:51 -34.78466 -58.75220 19366 ft 371 kts 227°
2026-05-05 23:51 -34.80318 -58.77411 19875 ft 373 kts 227°
2026-05-05 23:51 -34.82184 -58.79613 20377 ft 375 kts 227°
2026-05-05 23:52 -34.84062 -58.81827 20872 ft 377 kts 227°
2026-05-05 23:52 -34.85956 -58.84059 21344 ft 380 kts 227°
2026-05-05 23:52 -34.87860 -58.86305 21813 ft 382 kts 227°
2026-05-05 23:52 -34.89769 -58.88565 22257 ft 384 kts 227°
2026-05-05 23:53 -34.91689 -58.90842 22700 ft 387 kts 228°
2026-05-05 23:53 -34.93623 -58.93141 23141 ft 389 kts 228°
2026-05-05 23:53 -34.95561 -58.95446 23574 ft 391 kts 228°
2026-05-05 23:53 -34.97519 -58.97773 23949 ft 393 kts 228°
2026-05-05 23:54 -34.99487 -59.00111 24328 ft 395 kts 228°
2026-05-05 23:54 -35.00792 -59.01662 24584 ft 396 kts 228°
2026-05-05 23:54 -35.03436 -59.04802 25092 ft 398 kts 228°
2026-05-05 23:54 -35.05425 -59.07166 25479 ft 399 kts 228°
2026-05-05 23:55 -35.07415 -59.09534 25855 ft 400 kts 228°
2026-05-05 23:55 -35.08736 -59.11107 26095 ft 401 kts 228°
2026-05-05 23:55 -35.10741 -59.13498 26456 ft 403 kts 229°
2026-05-05 23:55 -35.12747 -59.15895 26805 ft 404 kts 229°
2026-05-05 23:56 -35.14764 -59.18309 27173 ft 406 kts 229°
2026-05-05 23:56 -35.16785 -59.20727 27556 ft 408 kts 229°
2026-05-05 23:56 -35.19475 -59.23946 28050 ft 409 kts 229°
2026-05-05 23:56 -35.20850 -59.25596 28298 ft 411 kts 229°
2026-05-05 23:57 -35.22890 -59.28045 28660 ft 412 kts 229°
2026-05-05 23:57 -35.24943 -59.30508 29009 ft 414 kts 229°
2026-05-05 23:57 -35.27001 -59.32974 29369 ft 415 kts 229°
2026-05-05 23:57 -35.29034 -59.35408 29873 ft 413 kts 229°
2026-05-05 23:58 -35.31081 -59.37863 30339 ft 411 kts 229°
2026-05-05 23:58 -35.33115 -59.40312 30763 ft 409 kts 230°
2026-05-05 23:58 -35.35134 -59.42750 31172 ft 407 kts 230°
2026-05-05 23:58 -35.36973 -59.45349 31594 ft 400 kts 238°
2026-05-05 23:59 -35.38591 -59.48110 32008 ft 398 kts 239°
2026-05-05 23:59 -35.40199 -59.50865 32434 ft 397 kts 239°
2026-05-05 23:59 -35.41806 -59.53616 32862 ft 395 kts 239°
2026-05-05 23:59 -35.43405 -59.56350 33287 ft 394 kts 239°
2026-05-06 00:00 -35.45002 -59.59076 33715 ft 393 kts 239°
2026-05-06 00:00 -35.46598 -59.61797 33944 ft 393 kts 239°
2026-05-06 00:00 -35.49814 -59.67303 33972 ft 398 kts 239°
2026-05-06 00:01 -35.53035 -59.72833 33978 ft 399 kts 239°
2026-05-06 00:01 -35.56260 -59.78374 33970 ft 399 kts 239°
2026-05-06 00:02 -35.59484 -59.83931 33973 ft 399 kts 239°
2026-05-06 00:02 -35.62702 -59.89491 33983 ft 399 kts 239°
2026-05-06 00:03 -35.65896 -59.95012 33994 ft 398 kts 239°
2026-05-06 00:03 -35.69104 -60.00551 33994 ft 398 kts 239°
2026-05-06 00:04 -35.72309 -60.06094 33988 ft 397 kts 239°
2026-05-06 00:04 -35.75508 -60.11638 33987 ft 397 kts 239°
2026-05-06 00:05 -35.80292 -60.19952 34004 ft 396 kts 239°
2026-05-06 00:06 -35.83465 -60.25489 34002 ft 395 kts 239°
2026-05-06 00:06 -35.86637 -60.31022 33998 ft 394 kts 239°
2026-05-06 00:07 -35.89797 -60.36543 33999 ft 394 kts 239°
2026-05-06 00:07 -35.92936 -60.42038 33997 ft 394 kts 239°
2026-05-06 00:08 -35.96087 -60.47563 34013 ft 392 kts 240°
2026-05-06 00:08 -35.99209 -60.53032 33986 ft 389 kts 240°
2026-05-06 00:09 -36.02320 -60.58492 33984 ft 389 kts 240°
2026-05-06 00:09 -36.05425 -60.63967 33982 ft 389 kts 240°
2026-05-06 00:10 -36.08519 -60.69448 33989 ft 389 kts 240°
2026-05-06 00:10 -36.11624 -60.74935 33987 ft 389 kts 240°
2026-05-06 00:11 -36.14723 -60.80418 34001 ft 389 kts 240°
2026-05-06 00:11 -36.17802 -60.85913 34000 ft 388 kts 240°
2026-05-06 00:12 -36.20865 -60.91407 34000 ft 387 kts 240°
2026-05-06 00:12 -36.23903 -60.96870 33998 ft 387 kts 240°
2026-05-06 00:13 -36.26964 -61.02360 33996 ft 387 kts 240°
2026-05-06 00:13 -36.30034 -61.07846 34007 ft 387 kts 240°
2026-05-06 00:14 -36.33091 -61.13341 34004 ft 387 kts 241°
2026-05-06 00:14 -36.36138 -61.18834 34003 ft 385 kts 241°
2026-05-06 00:15 -36.39161 -61.24299 34000 ft 384 kts 241°
2026-05-06 00:15 -36.42179 -61.29766 33992 ft 383 kts 241°
2026-05-06 00:16 -36.45194 -61.35231 34007 ft 383 kts 241°
2026-05-06 00:16 -36.48207 -61.40688 33998 ft 383 kts 241°
2026-05-06 00:17 -36.51195 -61.46115 33994 ft 383 kts 242°
2026-05-06 00:17 -36.54198 -61.51583 33990 ft 382 kts 242°
2026-05-06 00:18 -36.57193 -61.57049 33982 ft 382 kts 242°
2026-05-06 00:18 -36.60184 -61.62517 33977 ft 382 kts 242°
2026-05-06 00:19 -36.63177 -61.67987 33980 ft 382 kts 242°
2026-05-06 00:19 -36.66164 -61.73461 33973 ft 382 kts 242°
2026-05-06 00:20 -36.69148 -61.78945 33981 ft 382 kts 242°
2026-05-06 00:20 -36.72131 -61.84430 33983 ft 382 kts 242°
2026-05-06 00:21 -36.75117 -61.89917 33987 ft 382 kts 242°
2026-05-06 00:21 -36.78078 -61.95386 33993 ft 383 kts 243°
2026-05-06 00:22 -36.81062 -62.00898 33986 ft 383 kts 243°
2026-05-06 00:22 -36.84049 -62.06421 33982 ft 384 kts 243°
2026-05-06 00:23 -36.87039 -62.11947 33978 ft 384 kts 243°
2026-05-06 00:23 -36.90019 -62.17488 33976 ft 384 kts 243°
2026-05-06 00:24 -36.92998 -62.23035 33973 ft 384 kts 243°
2026-05-06 00:24 -36.95977 -62.28587 33964 ft 385 kts 243°
2026-05-06 00:25 -36.98966 -62.34159 33961 ft 386 kts 243°
2026-05-06 00:25 -37.01959 -62.39747 33963 ft 387 kts 243°
2026-05-06 00:26 -37.04949 -62.45345 33966 ft 387 kts 243°
2026-05-06 00:26 -37.07916 -62.50916 33970 ft 387 kts 243°
2026-05-06 00:27 -37.10904 -62.56527 33974 ft 388 kts 243°
2026-05-06 00:27 -37.13896 -62.62161 33971 ft 389 kts 243°
2026-05-06 00:28 -37.16893 -62.67806 34003 ft 389 kts 244°
2026-05-06 00:28 -37.19894 -62.73463 33995 ft 389 kts 244°
2026-05-06 00:29 -37.22886 -62.79122 33990 ft 389 kts 244°
2026-05-06 00:29 -37.25869 -62.84787 33993 ft 389 kts 244°
2026-05-06 00:30 -37.28863 -62.90463 33986 ft 389 kts 244°
2026-05-06 00:30 -37.31847 -62.96137 33983 ft 389 kts 244°
2026-05-06 00:31 -37.34770 -63.01796 33978 ft 385 kts 248°
2026-05-06 00:31 -37.37083 -63.07815 33976 ft 382 kts 251°
2026-05-06 00:32 -37.39366 -63.13852 34001 ft 382 kts 251°
2026-05-06 00:32 -37.41648 -63.19882 33993 ft 382 kts 251°
2026-05-06 00:33 -37.43924 -63.25903 33987 ft 381 kts 251°
2026-05-06 00:33 -37.46198 -63.31929 33982 ft 381 kts 251°
2026-05-06 00:34 -37.48464 -63.37961 33976 ft 381 kts 251°
2026-05-06 00:34 -37.50722 -63.43993 33983 ft 381 kts 251°
2026-05-06 00:35 -37.52977 -63.50026 33979 ft 381 kts 251°
2026-05-06 00:35 -37.55236 -63.56062 33977 ft 380 kts 251°
2026-05-06 00:36 -37.57487 -63.62094 33980 ft 380 kts 251°
2026-05-06 00:36 -37.59718 -63.68093 33978 ft 380 kts 251°
2026-05-06 00:37 -37.61962 -63.74133 33980 ft 380 kts 251°
2026-05-06 00:37 -37.64203 -63.80179 33981 ft 380 kts 251°
2026-05-06 00:38 -37.66442 -63.86229 33975 ft 380 kts 251°
2026-05-06 00:38 -37.68674 -63.92281 34006 ft 381 kts 251°
2026-05-06 00:39 -37.70913 -63.98345 33992 ft 381 kts 251°
2026-05-06 00:39 -37.73149 -64.04415 33988 ft 381 kts 251°
2026-05-06 00:40 -37.75376 -64.10490 33994 ft 381 kts 251°
2026-05-06 00:40 -37.77604 -64.16565 33986 ft 380 kts 251°
2026-05-06 00:41 -37.79824 -64.22631 33985 ft 380 kts 252°
2026-05-06 00:41 -37.82022 -64.28671 33973 ft 380 kts 252°
2026-05-06 00:42 -37.84232 -64.34739 33970 ft 380 kts 252°
2026-05-06 00:42 -37.86071 -64.39781 33984 ft 379 kts 252°
2026-05-06 00:43 -37.88272 -64.45842 33981 ft 379 kts 252°
2026-05-06 00:43 -37.90464 -64.51899 33978 ft 378 kts 252°
2026-05-06 00:44 -37.92647 -64.57952 33973 ft 378 kts 252°
2026-05-06 00:44 -37.94837 -64.64002 33971 ft 377 kts 252°
2026-05-06 00:45 -37.97019 -64.70058 33965 ft 377 kts 252°
2026-05-06 00:45 -37.99186 -64.76109 33961 ft 377 kts 252°
2026-05-06 00:46 -38.01357 -64.82166 33962 ft 377 kts 252°
2026-05-06 00:46 -38.03520 -64.88217 33964 ft 377 kts 252°
2026-05-06 00:47 -38.05678 -64.94266 33959 ft 377 kts 252°
2026-05-06 00:47 -38.07834 -65.00327 33975 ft 376 kts 252°
2026-05-06 00:48 -38.09989 -65.06383 33977 ft 376 kts 252°
2026-05-06 00:48 -38.12139 -65.12434 33967 ft 376 kts 252°
2026-05-06 00:49 -38.14284 -65.18494 33963 ft 376 kts 252°
2026-05-06 00:49 -38.16428 -65.24552 33958 ft 376 kts 252°
2026-05-06 00:50 -38.18549 -65.30572 33980 ft 375 kts 253°
2026-05-06 00:50 -38.20685 -65.36637 33965 ft 375 kts 253°
2026-05-06 00:51 -38.22816 -65.42695 33956 ft 375 kts 253°
2026-05-06 00:51 -38.24941 -65.48758 33951 ft 375 kts 253°
2026-05-06 00:52 -38.27068 -65.54829 33958 ft 375 kts 253°
2026-05-06 00:52 -38.29181 -65.60896 33976 ft 375 kts 253°
2026-05-06 00:53 -38.31295 -65.66963 33944 ft 374 kts 253°
2026-05-06 00:53 -38.33401 -65.73024 33936 ft 374 kts 253°
2026-05-06 00:54 -38.35503 -65.79097 33930 ft 375 kts 253°
2026-05-06 00:54 -38.37594 -65.85145 33931 ft 375 kts 253°
2026-05-06 00:55 -38.39709 -65.91241 33927 ft 376 kts 253°
2026-05-06 00:55 -38.41819 -65.97350 33948 ft 377 kts 253°
2026-05-06 00:56 -38.43948 -66.03484 33931 ft 379 kts 253°
2026-05-06 00:56 -38.46087 -66.09628 33934 ft 379 kts 253°
2026-05-06 00:57 -38.48227 -66.15790 33927 ft 380 kts 253°
2026-05-06 00:57 -38.50356 -66.21962 33927 ft 380 kts 253°
2026-05-06 00:58 -38.52479 -66.28132 33930 ft 380 kts 253°
2026-05-06 00:58 -38.54607 -66.34313 33921 ft 380 kts 253°
2026-05-06 00:59 -38.56722 -66.40467 33916 ft 381 kts 253°
2026-05-06 00:59 -38.58852 -66.46671 33917 ft 381 kts 253°
2026-05-06 01:00 -38.60985 -66.52887 33921 ft 382 kts 253°
2026-05-06 01:00 -38.63112 -66.59099 33945 ft 381 kts 254°
2026-05-06 01:01 -38.65235 -66.65315 33371 ft 382 kts 254°
2026-05-06 01:01 -38.66290 -66.68417 32918 ft 377 kts 254°
2026-05-06 01:01 -38.67331 -66.71469 32482 ft 372 kts 254°
2026-05-06 01:01 -38.68363 -66.74487 32043 ft 368 kts 254°
2026-05-06 01:02 -38.69378 -66.77470 31596 ft 363 kts 254°
2026-05-06 01:02 -38.70378 -66.80422 31175 ft 360 kts 254°
2026-05-06 01:02 -38.71364 -66.83347 30743 ft 356 kts 254°
2026-05-06 01:02 -38.72345 -66.86257 30319 ft 353 kts 254°
2026-05-06 01:03 -38.73305 -66.89114 29888 ft 357 kts 254°
2026-05-06 01:03 -38.74312 -66.92154 29410 ft 382 kts 254°
2026-05-06 01:03 -38.75375 -66.95376 28932 ft 400 kts 253°
2026-05-06 01:03 -38.76480 -66.98678 28453 ft 405 kts 253°
2026-05-06 01:04 -38.77602 -67.01986 27967 ft 404 kts 253°
2026-05-06 01:04 -38.78722 -67.05281 27494 ft 402 kts 253°
2026-05-06 01:04 -38.79835 -67.08557 27015 ft 399 kts 253°
2026-05-06 01:04 -38.80936 -67.11810 26476 ft 396 kts 253°
2026-05-06 01:05 -38.82019 -67.15033 25975 ft 392 kts 253°
2026-05-06 01:05 -38.83093 -67.18241 25480 ft 389 kts 253°
2026-05-06 01:05 -38.84152 -67.21425 24999 ft 386 kts 253°
2026-05-06 01:05 -38.85202 -67.24583 24531 ft 384 kts 254°
2026-05-06 01:06 -38.86249 -67.27730 24058 ft 388 kts 254°
2026-05-06 01:06 -38.87321 -67.30982 23549 ft 399 kts 253°
2026-05-06 01:06 -38.88408 -67.34270 22981 ft 400 kts 253°
2026-05-06 01:06 -38.89485 -67.37509 22465 ft 399 kts 253°
2026-05-06 01:07 -38.90570 -67.40771 21940 ft 396 kts 253°
2026-05-06 01:07 -38.91649 -67.44010 21398 ft 393 kts 253°
2026-05-06 01:07 -38.92719 -67.47229 20853 ft 391 kts 253°
2026-05-06 01:07 -38.93791 -67.50478 20297 ft 397 kts 253°
2026-05-06 01:08 -38.94870 -67.53746 19728 ft 397 kts 253°
2026-05-06 01:08 -38.95945 -67.57002 19168 ft 394 kts 253°
2026-05-06 01:08 -38.97010 -67.60233 18596 ft 392 kts 253°
2026-05-06 01:08 -38.98069 -67.63448 18010 ft 389 kts 253°
2026-05-06 01:09 -38.99122 -67.66639 17415 ft 386 kts 253°
2026-05-06 01:09 -39.00166 -67.69807 16847 ft 384 kts 253°
2026-05-06 01:09 -39.01199 -67.72955 16303 ft 381 kts 253°
2026-05-06 01:09 -39.02223 -67.76086 15739 ft 378 kts 253°
2026-05-06 01:10 -39.03240 -67.79203 14993 ft 376 kts 253°
2026-05-06 01:10 -39.04195 -67.82322 14223 ft 372 kts 259°
2026-05-06 01:10 -39.04565 -67.85562 13441 ft 363 kts 273°
2026-05-06 01:10 -39.04565 -67.88798 12606 ft 361 kts 274°
2026-05-06 01:11 -39.04556 -67.92019 11790 ft 359 kts 274°
2026-05-06 01:11 -39.04548 -67.95223 10996 ft 357 kts 274°
2026-05-06 01:11 -39.04539 -67.98406 10222 ft 355 kts 274°
2026-05-06 01:11 -39.04528 -68.01572 9431 ft 353 kts 274°
2026-05-06 01:12 -39.04517 -68.04707 8742 ft 347 kts 274°
2026-05-06 01:12 -39.04509 -68.07770 8239 ft 338 kts 274°
2026-05-06 01:12 -39.04502 -68.10756 7744 ft 330 kts 274°
2026-05-06 01:12 -39.04497 -68.13667 7202 ft 318 kts 274°
2026-05-06 01:13 -39.04493 -68.16438 6602 ft 304 kts 274°
2026-05-06 01:13 -39.04487 -68.19118 6003 ft 294 kts 274°
2026-05-06 01:13 -39.04479 -68.21720 5383 ft 287 kts 276°
2026-05-06 01:13 -39.04470 -68.24265 4774 ft 283 kts 276°
2026-05-06 01:14 -39.03615 -68.28800 3946 ft 243 kts 313°
2026-05-06 01:14 -39.02458 -68.30158 3838 ft 212 kts 338°
2026-05-06 01:14 -39.01141 -68.30827 3749 ft 198 kts 346°
2026-05-06 01:15 -38.99828 -68.31127 3642 ft 186 kts 358°
2026-05-06 01:15 -38.98564 -68.31158 3529 ft 178 kts
2026-05-06 01:15 -38.97440 -68.30541 3260 ft 176 kts 32°
2026-05-06 01:15 -38.96466 -68.29642 2984 ft 168 kts 33°
2026-05-06 01:16 -38.95543 -68.28779 2761 ft 160 kts 38°
2026-05-06 01:16 -38.94949 -68.27650 2559 ft 151 kts 69°
2026-05-06 01:16 -38.94859 -68.26338 2395 ft 144 kts 85°
2026-05-06 01:16 -38.94866 -68.25084 2191 ft 138 kts 85°
2026-05-06 01:17 -38.94870 -68.23858 1974 ft 138 kts 88°
2026-05-06 01:17 -38.94880 -68.22643 1833 ft 137 kts 89°
2026-05-06 01:17 -38.94900 -68.21406 1567 ft 138 kts 90°
2026-05-06 01:17 -38.94887 -68.20190 1424 ft 138 kts 91°
2026-05-06 01:18 -38.94888 -68.18957 1249 ft 137 kts 91°
2026-05-06 01:18 -38.94893 -68.17740 1038 ft 134 kts 90°
2026-05-06 01:18 -38.94897 -68.16557 909 ft 125 kts 91°
2026-05-06 01:18 -38.94902 -68.15580 905 ft 88 kts 90°
2026-05-06 01:19 -38.94902 -68.15005 902 ft 44 kts 90°
2026-05-06 01:19 -38.94903 -68.14665 902 ft 29 kts 89°
2026-05-06 01:19 -38.94903 -68.14454 904 ft 22 kts 90°
2026-05-06 01:19 -38.94903 -68.14253 905 ft 23 kts 90°
2026-05-06 01:20 -38.94938 -68.14115 909 ft 7 kts 174°
2026-05-06 01:20 -38.95012 -68.14113 904 ft 15 kts 179°
2026-05-06 01:20 -38.95092 -68.14125 904 ft 4 kts 243°
2026-05-06 01:20 -38.95109 -68.14156 907 ft 6 kts 197°
2026-05-06 01:21 -38.95150 -68.14158 904 ft 4 kts 179°
2026-05-06 01:21 -38.95153 -68.14158 904 ft 0 kts 179°